Simultaneous Nadir Overpasses (SNOs) Predictions

Prediction of SNOs between FY3D and TERRA Satellite Orbit:

Table of predicted SNOs for the next 14.0 days since TLE Epoch: 8/10/2024
Index Date (FY3D) Time (FY3D) Lat,Lon (FY3D) SZA (FY3D ) Date (TERRA) Time (TERRA) Lat,Lon (TERRA) SZA (TERRA ) Distance(km) Time Diff (sec)
1 08/12/2024 11:16:09 -76.07,-168.96 118.74 08/12/2024 11:17:12 -76.04,-168.97 118.78 3.86 63
2 08/12/2024 12:06:54 76.00, -1.40 61.20 08/12/2024 12:06:33 76.02, -1.36 61.22 2.51 21
3 08/14/2024 22:28:58 -76.08, 22.86 117.98 08/14/2024 22:30:09 -76.08, 22.88 117.98 0.63 71
4 08/14/2024 23:19:43 76.01,-169.59 61.97 08/14/2024 23:19:31 76.01,-169.67 61.97 2.27 12
5 08/17/2024 09:41:52 -76.32,-146.18 116.95 08/17/2024 09:43:03 -76.21,-144.99 117.06 33.58 71
6 08/17/2024 10:32:32 76.03, 22.18 62.77 08/17/2024 10:32:27 76.04, 22.14 62.78 1.42 5
7 08/17/2024 11:23:04 -75.48,-168.64 117.77 08/17/2024 11:21:58 -75.55,-171.61 117.70 82.94 66
8 08/19/2024 20:54:47 -76.62, 44.53 115.83 08/19/2024 20:55:52 -76.53, 47.75 115.94 83.65 65
9 08/19/2024 21:45:21 76.07,-146.09 63.61 08/19/2024 21:45:22 76.06,-146.07 63.60 1.24 1
10 08/19/2024 22:35:58 -75.74, 22.34 116.71 08/19/2024 22:34:48 -75.82, 20.89 116.63 40.58 70
11 08/22/2024 08:58:08 76.07, 45.74 64.44 08/22/2024 08:58:15 76.07, 45.69 64.43 1.53 7



Historial Predications of SNOs between FY3D and TERRA
